Location: San Pelegr�n
(42.1868°N, 0.0079°E)
Time: 05:23:09
(UTC+00:00)

Cosmos 1758 Rocket - Pass Details

Date: 24 January 2020
Orbit: 603 x 635 km, 82.5° (Epoch: 19 February)

Event Time Altitude Azimuth Distance (km) Brightness Sun altitude
Rises 18:11:01 0° 196° (SSW) 2,843 7.4 -12.6°
Reaches altitude 10° 18:13:15 10° 200° (SSW) 1,943 6.6 -13.0°
Maximum altitude 18:17:29 58° 280° (W) 704 4.1 -13.7°
Drops below altitude 10° 18:21:45 10° 0° (N) 1,959 6.0 -14.5°
Sets 18:24:01 0° 5° (N) 2,869 6.8 -14.9°
